Flag for Switzerland Weather past 2 weeks in Steffisburg, Bern, Switzerland

Now
64 °F

Scattered clouds.


Feels Like: 64 °F
Forecast: 37 / 44 °F
Wind: 8 mph from Southwest

Location: Bern / Belp

Current Time: Oct 21, 2014 at 4:23:02 PM

Latest Report: Oct 21, 2014 at 3:50 PM


Visibility: N/A

Pressure: 29.92 "Hg

Humidity: 64%

Dew point: 52 °F

Location of SteffisburgLocation

Historic Weather in Steffisburg — Graph

°F

Steffisburg temperature yesterday

Maximum temperature yesterday: 72 °F (at 2:20 PM)
Minimum temperature yesterday: 46 °F (at 4:20 AM)
Average temperature yesterday: 58 °F

Past Weeks' High & Low Weather Summary

 TemperatureHumidityPressure
High73 °F (Oct 9, 3:20 PM)100% (Oct 6, 8:50 PM)30.27 "Hg (Oct 6, 8:50 PM)
Low43 °F (Oct 19, 4:50 AM)50% (Oct 9, 3:20 PM)29.77 "Hg (Oct 13, 4:50 AM)
Average57 °F89%29.96 "Hg
* Reported Oct 6 3:20 PM — Oct 21 3:20 PM, Steffisburg, Weather by CustomWeather, © 2014

Note: Actual official high and low records may vary slightly from our data, if they occured in-between our weather recording intervals... More about our weather records

Advertising

Steffisburg weather history for previous 24 hours

 ConditionsComfort  
Time TempWeatherWind HumidityBarometerVisibility
3:20 PM
Oct 21
66 °FPartly sunny.10 mph60%29.95 "HgN/A
2:50 PM63 °FPartly sunny.12 mph64%29.95 "HgN/A
2:20 PM63 °FPartly sunny.9 mph68%29.98 "HgN/A
1:50 PM63 °FPartly sunny.12 mph73%29.98 "HgN/A
1:20 PM66 °FBroken clouds.15 mph64%29.98 "HgN/A
12:50 PM66 °FBroken clouds.12 mph68%29.98 "HgN/A
12:20 PM64 °FScattered clouds.12 mph73%29.98 "HgN/A
11:50 AM66 °FScattered clouds.12 mph68%30.01 "HgN/A
11:20 AM64 °FScattered clouds.5 mph73%30.01 "HgN/A
10:50 AM61 °FScattered clouds.6 mph88%30.01 "HgN/A
10:20 AM61 °FPartly sunny.12 mph88%30.01 "HgN/A
9:50 AM59 °FBroken clouds.6 mph88%30.04 "HgN/A
9:20 AM57 °FPartly sunny.6 mph94%30.01 "HgN/A
8:50 AM57 °FPassing clouds.5 mph94%30.04 "HgN/A
8:20 AM57 °FPassing clouds.7 mph94%30.01 "HgN/A
7:50 AM57 °FPassing clouds.6 mph94%30.01 "HgN/A
7:20 AM57 °FPassing clouds.3 mph94%30.01 "HgN/A
6:50 AM59 °FPassing clouds.9 mph88%30.01 "HgN/A
6:20 AM57 °FPassing clouds.8 mph100%30.01 "HgN/A
5:50 AM57 °FPassing clouds.7 mph100%30.01 "HgN/A
5:20 AM57 °FLight rain. Passing clouds.6 mph100%30.04 "Hg6 mi
4:50 AM57 °FLight rain. Partly cloudy.8 mph100%30.04 "Hg4 mi
4:20 AM57 °FLight rain. Fog.3 mph100%30.04 "Hg3 mi
3:50 AM57 °FLight rain. Fog.3 mph100%30.04 "Hg2 mi
3:20 AM57 °FRain showers. Fog.3 mph100%30.04 "Hg2 mi
2:50 AM57 °FSprinkles. Fog.2 mph100%30.04 "Hg2 mi
2:20 AM57 °FLight rain. Partly cloudy.2 mph100%30.07 "Hg6 mi
1:50 AM59 °FPassing clouds.6 mph94%30.07 "HgN/A
1:20 AM59 °FMostly cloudy.5 mph94%30.07 "HgN/A
12:50 AM59 °FPassing clouds.8 mph94%30.07 "HgN/A
12:20 AM59 °FLight rain. Partly cloudy.8 mph94%30.07 "Hg3 mi
11:50 PM
Oct 20
59 °FRain. Fog.3 mph94%30.09 "Hg3 mi
11:20 PM59 °FLight rain. Partly cloudy.2 mph94%30.09 "Hg4 mi
10:50 PM59 °FLight rain. Mostly cloudy.1 mph94%30.09 "Hg5 mi
10:20 PM59 °FSprinkles. Partly cloudy.1 mph94%30.09 "HgN/A
9:50 PM59 °FDrizzle. Overcast.5 mph94%30.07 "HgN/A
9:20 PM59 °FPassing clouds.3 mph94%30.07 "HgN/A
8:50 PM59 °FPartly cloudy.1 mph94%30.07 "HgN/A
8:20 PM59 °FPartly cloudy.3 mph94%30.07 "HgN/A
7:50 PM61 °FPassing clouds.1 mph88%30.07 "HgN/A
7:20 PM61 °FPartly sunny.2 mph88%30.07 "HgN/A
6:50 PM63 °FPartly sunny.No wind88%30.07 "HgN/A
6:20 PM64 °FPartly sunny.3 mph78%30.07 "HgN/A
5:50 PM66 °FBroken clouds.5 mph78%30.07 "HgN/A
5:20 PM68 °FPartly sunny.3 mph69%30.07 "HgN/A
4:50 PM70 °FScattered clouds.1 mph64%30.07 "HgN/A
4:20 PM70 °FSunny.2 mph60%30.09 "Hg10 mi
Weather by CustomWeather, © 2014

See weather overviewHow to use our weather pages